Location: Chrome
(40.5765°N, 74.2163°W)
Time: 10:07:14
(UTC+00:00)

Meteor 1-14 Rocket - Pass Details

Date: 06 December 2019
Orbit: 833 x 920 km, 81.3° (Epoch: 19 January)

Event Time Altitude Azimuth Distance (km) Brightness Sun altitude
Rises 21:51:04 0° 350° (N) 3,555 7.3 -4.4°
Reaches altitude 10° 21:53:34 10° 350° (N) 2,602 6.6 -4.8°
Maximum altitude 21:59:32 88° 261° (W) 903 4.4 -5.9°
Drops below altitude 10° 22:05:19 10° 173° (S) 2,531 6.9 -6.9°
Sets 22:07:43 0° 173° (S) 3,453 7.6 -7.3°
